Time,TemperatureF,DewpointF,PressureIn,WindDirection,WindDirectionDegrees,WindSpeedMPH,WindSpeedGustMPH,Humidity,HourlyPrecipIn,Conditions,Clouds,dailyrainin,SoftwareType,DateUTC
2013-02-25 00:00:00,12.5,11.3,30.16,South,181,0.0,0.0,95,0.00,,,0.00,VWS V14.01,2013-02-25 06:00:00,
2013-02-25 00:10:00,13.9,12.7,30.16,South,181,0.0,0.0,95,0.00,,,0.00,VWS V14.01,2013-02-25 06:10:00,
2013-02-25 00:15:00,14.3,13.1,30.16,South,181,0.0,0.0,95,0.00,,,0.00,VWS V14.01,2013-02-25 06:15:00,
2013-02-25 00:20:00,14.5,13.3,30.16,South,181,0.0,0.0,95,0.00,,,0.00,VWS V14.01,2013-02-25 06:20:00,
2013-02-25 00:25:00,14.9,13.7,30.16,South,181,0.0,0.0,95,0.00,,,0.00,VWS V14.01,2013-02-25 06:25:00,
2013-02-25 00:30:00,15.3,14.1,30.16,South,181,0.0,0.0,95,0.00,,,0.00,VWS V14.01,2013-02-25 06:30:00,
2013-02-25 00:35:00,15.5,14.3,30.15,South,181,0.0,0.0,95,0.00,,,0.00,VWS V14.01,2013-02-25 06:35:00,
2013-02-25 00:40:00,15.7,14.5,30.16,South,181,0.0,0.0,95,0.00,,,0.00,VWS V14.01,2013-02-25 06:40:00,
2013-02-25 00:45:00,16.0,14.8,30.15,South,181,0.0,0.0,95,0.00,,,0.00,VWS V14.01,2013-02-25 06:45:00,
2013-02-25 00:50:00,16.2,15.0,30.15,ESE,120,0.0,4.2,95,0.00,,,0.00,VWS V14.01,2013-02-25 06:50:00,
2013-02-25 00:55:00,16.3,15.1,30.15,ESE,120,0.0,0.0,95,0.00,,,0.00,VWS V14.01,2013-02-25 06:55:00,
2013-02-25 01:00:00,16.3,15.1,30.15,ESE,120,0.0,0.0,95,0.00,,,0.00,VWS V14.01,2013-02-25 07:00:00,
2013-02-25 01:05:00,16.5,15.3,30.15,ESE,120,0.0,0.0,95,0.00,,,0.00,VWS V14.01,2013-02-25 07:05:00,
2013-02-25 01:10:00,16.6,15.4,30.15,ESE,120,0.0,0.0,95,0.00,,,0.00,VWS V14.01,2013-02-25 07:10:00,
2013-02-25 01:15:00,16.8,15.6,30.15,ESE,120,0.0,0.0,95,0.00,,,0.00,VWS V14.01,2013-02-25 07:15:00,
2013-02-25 01:25:00,17.2,16.0,30.15,ESE,120,0.0,0.0,95,0.00,,,0.00,VWS V14.01,2013-02-25 07:25:00,
2013-02-25 01:30:00,17.4,16.4,30.15,ESE,120,0.0,0.0,96,0.00,,,0.00,VWS V14.01,2013-02-25 07:30:00,
2013-02-25 01:35:00,17.4,16.2,30.16,ESE,120,0.0,0.0,95,0.00,,,0.00,VWS V14.01,2013-02-25 07:35:00,
2013-02-25 01:40:00,17.5,16.3,30.16,ESE,120,0.0,0.0,95,0.00,,,0.00,VWS V14.01,2013-02-25 07:40:00,
2013-02-25 01:45:00,17.7,16.5,30.15,ESE,120,0.0,0.0,95,0.00,,,0.00,VWS V14.01,2013-02-25 07:45:00,
2013-02-25 01:50:00,17.8,16.6,30.15,ESE,120,0.0,0.0,95,0.00,,,0.00,VWS V14.01,2013-02-25 07:50:00,
2013-02-25 01:55:00,17.8,16.6,30.15,ESE,120,0.0,0.0,95,0.00,,,0.00,VWS V14.01,2013-02-25 07:55:00,
2013-02-25 02:00:00,17.8,16.6,30.15,ESE,120,0.0,0.0,95,0.00,,,0.00,VWS V14.01,2013-02-25 08:00:00,
2013-02-25 02:05:00,17.8,16.6,30.15,ESE,120,0.0,0.0,95,0.00,,,0.00,VWS V14.01,2013-02-25 08:05:00,
2013-02-25 02:10:00,17.9,16.7,30.15,ESE,120,0.0,0.0,95,0.00,,,0.00,VWS V14.01,2013-02-25 08:10:00,
2013-02-25 02:15:00,17.9,16.9,30.15,ESE,120,0.0,0.0,96,0.00,,,0.00,VWS V14.01,2013-02-25 08:15:00,
2013-02-25 02:20:00,18.1,17.1,30.15,ESE,120,0.0,0.0,96,0.00,,,0.00,VWS V14.01,2013-02-25 08:20:00,
2013-02-25 02:25:00,18.1,17.1,30.15,ESE,120,0.0,0.0,96,0.00,,,0.00,VWS V14.01,2013-02-25 08:25:00,
2013-02-25 02:30:00,18.2,17.0,30.15,ESE,120,0.0,0.0,95,0.00,,,0.00,VWS V14.01,2013-02-25 08:30:00,
2013-02-25 02:35:00,18.3,17.1,30.14,ESE,120,0.0,0.0,95,0.00,,,0.00,VWS V14.01,2013-02-25 08:35:00,
2013-02-25 02:40:00,18.4,17.4,30.15,ESE,120,0.0,0.0,96,0.00,,,0.00,VWS V14.01,2013-02-25 08:40:00,
2013-02-25 02:45:00,18.4,17.2,30.14,ESE,120,0.0,0.0,95,0.00,,,0.00,VWS V14.01,2013-02-25 08:45:00,
2013-02-25 02:50:00,18.4,17.2,30.14,ESE,120,0.0,0.0,95,0.00,,,0.00,VWS V14.01,2013-02-25 08:50:00,
2013-02-25 02:55:00,18.5,17.3,30.14,ESE,120,0.0,0.0,95,0.00,,,0.00,VWS V14.01,2013-02-25 08:55:00,
2013-02-25 03:00:00,18.6,17.6,30.14,ESE,120,0.0,0.0,96,0.00,,,0.00,VWS V14.01,2013-02-25 09:00:00,
2013-02-25 03:05:00,18.7,17.7,30.14,ESE,120,0.0,0.0,96,0.00,,,0.00,VWS V14.01,2013-02-25 09:05:00,
2013-02-25 03:10:00,18.8,17.8,30.14,ESE,120,0.0,0.0,96,0.00,,,0.00,VWS V14.01,2013-02-25 09:10:00,
2013-02-25 03:15:00,18.8,17.8,30.14,ESE,121,0.0,0.0,96,0.00,,,0.00,VWS V14.01,2013-02-25 09:15:00,
2013-02-25 03:20:00,18.8,17.8,30.14,ESE,121,0.0,0.0,96,0.00,,,0.00,VWS V14.01,2013-02-25 09:20:00,
2013-02-25 03:25:00,18.8,17.8,30.13,ESE,121,0.0,0.0,96,0.00,,,0.00,VWS V14.01,2013-02-25 09:25:00,
2013-02-25 03:30:00,18.8,17.8,30.14,ESE,121,0.0,0.0,96,0.00,,,0.00,VWS V14.01,2013-02-25 09:30:00,
2013-02-25 03:35:00,18.8,17.8,30.13,ESE,122,0.0,0.0,96,0.00,,,0.00,VWS V14.01,2013-02-25 09:35:00,
2013-02-25 03:40:00,18.8,17.8,30.13,ESE,121,0.0,0.0,96,0.00,,,0.00,VWS V14.01,2013-02-25 09:40:00,
2013-02-25 03:45:00,18.8,17.8,30.13,ESE,121,0.0,0.0,96,0.00,,,0.00,VWS V14.01,2013-02-25 09:45:00,
2013-02-25 03:50:00,18.8,17.8,30.13,ESE,121,0.0,0.0,96,0.00,,,0.00,VWS V14.01,2013-02-25 09:50:00,
2013-02-25 03:55:00,18.8,17.8,30.13,ESE,121,0.0,0.0,96,0.00,,,0.00,VWS V14.01,2013-02-25 09:55:00,
2013-02-25 04:00:00,18.8,17.8,30.12,ESE,121,0.0,0.0,96,0.00,,,0.00,VWS V14.01,2013-02-25 10:00:00,
2013-02-25 04:05:00,18.8,17.8,30.13,ESE,121,0.0,0.0,96,0.00,,,0.00,VWS V14.01,2013-02-25 10:05:00,
2013-02-25 04:10:00,18.9,17.9,30.12,ESE,121,0.0,0.0,96,0.00,,,0.00,VWS V14.01,2013-02-25 10:10:00,
2013-02-25 04:15:00,18.9,17.9,30.13,ESE,121,0.0,0.0,96,0.00,,,0.00,VWS V14.01,2013-02-25 10:15:00,
2013-02-25 04:20:00,18.9,17.9,30.12,ESE,121,0.0,0.0,96,0.00,,,0.00,VWS V14.01,2013-02-25 10:20:00,
2013-02-25 04:25:00,19.0,18.0,30.12,ESE,121,0.0,0.0,96,0.00,,,0.00,VWS V14.01,2013-02-25 10:25:00,
2013-02-25 04:30:00,19.0,18.0,30.12,ESE,121,0.0,0.0,96,0.00,,,0.00,VWS V14.01,2013-02-25 10:30:00,
2013-02-25 04:35:00,19.1,18.1,30.13,ESE,121,0.0,0.0,96,0.00,,,0.00,VWS V14.01,2013-02-25 10:35:00,
2013-02-25 04:40:00,19.1,18.1,30.13,ESE,121,0.0,0.0,96,0.00,,,0.00,VWS V14.01,2013-02-25 10:40:00,
2013-02-25 04:45:00,19.2,18.2,30.13,ESE,121,0.0,0.0,96,0.00,,,0.00,VWS V14.01,2013-02-25 10:45:00,
2013-02-25 04:50:00,19.1,18.1,30.13,ESE,121,0.0,0.0,96,0.00,,,0.00,VWS V14.01,2013-02-25 10:50:00,
2013-02-25 04:55:00,19.1,18.1,30.14,ESE,123,0.0,0.0,96,0.00,,,0.00,VWS V14.01,2013-02-25 10:55:00,
2013-02-25 05:00:00,19.1,18.1,30.14,ESE,123,0.0,0.0,96,0.00,,,0.00,VWS V14.01,2013-02-25 11:00:00,
2013-02-25 05:05:00,19.1,18.1,30.14,ESE,123,0.0,0.0,96,0.00,,,0.00,VWS V14.01,2013-02-25 11:05:00,
2013-02-25 05:10:00,19.1,18.1,30.14,SSW,209,0.0,0.0,96,0.00,,,0.00,VWS V14.01,2013-02-25 11:10:00,
2013-02-25 05:15:00,19.1,18.1,30.14,SSW,213,0.0,0.0,96,0.00,,,0.00,VWS V14.01,2013-02-25 11:15:00,
2013-02-25 05:20:00,19.0,18.0,30.14,SW,235,0.0,4.2,96,0.00,,,0.00,VWS V14.01,2013-02-25 11:20:00,
2013-02-25 05:25:00,19.0,18.0,30.14,SW,234,3.0,4.2,96,0.00,,,0.00,VWS V14.01,2013-02-25 11:25:00,
2013-02-25 05:30:00,19.0,18.0,30.14,WSW,240,3.0,4.2,96,0.00,,,0.00,VWS V14.01,2013-02-25 11:30:00,
2013-02-25 05:35:00,19.0,18.0,30.14,SW,222,4.0,4.2,96,0.00,,,0.00,VWS V14.01,2013-02-25 11:35:00,
2013-02-25 05:40:00,18.8,17.8,30.13,SW,214,4.0,6.3,96,0.00,,,0.00,VWS V14.01,2013-02-25 11:40:00,
2013-02-25 05:45:00,18.5,17.5,30.14,SSW,210,4.0,5.2,96,0.00,,,0.00,VWS V14.01,2013-02-25 11:45:00,
2013-02-25 05:50:00,18.2,17.2,30.14,SSW,204,5.0,6.3,96,0.00,,,0.00,VWS V14.01,2013-02-25 11:50:00,
2013-02-25 05:55:00,17.9,16.9,30.14,SW,221,4.0,5.2,96,0.00,,,0.00,VWS V14.01,2013-02-25 11:55:00,
2013-02-25 06:00:00,17.5,16.3,30.14,SW,227,3.0,5.2,95,0.00,,,0.00,VWS V14.01,2013-02-25 12:00:00,
2013-02-25 06:10:00,16.7,15.5,30.14,SSW,204,4.0,4.2,95,0.00,,,0.00,VWS V14.01,2013-02-25 12:10:00,
2013-02-25 06:15:00,16.1,14.9,30.15,SSW,193,3.0,5.2,95,0.00,,,0.00,VWS V14.01,2013-02-25 12:15:00,
2013-02-25 06:20:00,15.5,14.1,30.15,South,169,0.0,3.1,94,0.00,,,0.00,VWS V14.01,2013-02-25 12:20:00,
2013-02-25 06:25:00,14.8,13.4,30.15,South,169,0.0,1.0,94,0.00,,,0.00,VWS V14.01,2013-02-25 12:25:00,
2013-02-25 06:30:00,14.2,12.8,30.15,South,169,0.0,1.0,94,0.00,,,0.00,VWS V14.01,2013-02-25 12:30:00,
2013-02-25 06:35:00,13.9,12.5,30.15,South,169,0.0,0.0,94,0.00,,,0.00,VWS V14.01,2013-02-25 12:35:00,
2013-02-25 06:40:00,13.9,12.5,30.15,South,169,0.0,0.0,94,0.00,,,0.00,VWS V14.01,2013-02-25 12:40:00,
2013-02-25 06:45:00,12.8,11.1,30.15,SW,226,2.0,3.1,93,0.00,,,0.00,VWS V14.01,2013-02-25 12:45:00,
2013-02-25 06:55:00,11.2,9.6,30.15,SW,226,0.0,0.0,93,0.00,,,0.00,VWS V14.01,2013-02-25 12:55:00,
2013-02-25 07:05:00,10.1,8.5,30.15,SW,226,0.0,0.0,93,0.00,,,0.00,VWS V14.01,2013-02-25 13:05:00,
2013-02-25 07:15:00,10.3,8.9,30.15,SW,226,0.0,0.0,94,0.00,,,0.00,VWS V14.01,2013-02-25 13:15:00,
2013-02-25 07:25:00,10.6,9.2,30.15,SW,226,0.0,0.0,94,0.00,,,0.00,VWS V14.01,2013-02-25 13:25:00,
2013-02-25 07:30:00,10.8,9.4,30.15,SW,226,0.0,0.0,94,0.00,,,0.00,VWS V14.01,2013-02-25 13:30:00,
2013-02-25 07:35:00,11.6,10.4,30.15,SW,226,0.0,0.0,95,0.00,,,0.00,VWS V14.01,2013-02-25 13:35:00,
2013-02-25 07:45:00,13.0,11.8,30.15,SW,226,0.0,0.0,95,0.00,,,0.00,VWS V14.01,2013-02-25 13:45:00,
2013-02-25 07:50:00,13.4,12.2,30.15,SW,226,0.0,0.0,95,0.00,,,0.00,VWS V14.01,2013-02-25 13:50:00,
2013-02-25 07:55:00,13.5,12.3,30.16,SW,226,0.0,0.0,95,0.00,,,0.00,VWS V14.01,2013-02-25 13:55:00,
2013-02-25 08:00:00,13.6,12.4,30.15,SW,226,0.0,0.0,95,0.00,,,0.00,VWS V14.01,2013-02-25 14:00:00,
2013-02-25 08:10:00,13.8,12.4,30.16,SW,226,0.0,0.0,94,0.00,,,0.00,VWS V14.01,2013-02-25 14:10:00,
2013-02-25 08:15:00,13.7,12.3,30.16,SW,226,0.0,0.0,94,0.00,,,0.00,VWS V14.01,2013-02-25 14:15:00,
2013-02-25 08:25:00,13.9,12.5,30.17,SW,226,0.0,0.0,94,0.00,,,0.00,VWS V14.01,2013-02-25 14:25:00,
2013-02-25 08:30:00,14.0,12.8,30.17,SW,226,0.0,0.0,95,0.00,,,0.00,VWS V14.01,2013-02-25 14:30:00,
2013-02-25 08:35:00,13.9,12.5,30.17,SW,226,0.0,0.0,94,0.00,,,0.00,VWS V14.01,2013-02-25 14:35:00,
2013-02-25 08:40:00,13.9,12.5,30.17,SW,226,0.0,0.0,94,0.00,,,0.00,VWS V14.01,2013-02-25 14:40:00,
2013-02-25 08:45:00,14.1,12.9,30.17,SW,226,0.0,0.0,95,0.00,,,0.00,VWS V14.01,2013-02-25 14:45:00,
2013-02-25 08:50:00,14.3,13.1,30.17,SW,226,0.0,0.0,95,0.00,,,0.00,VWS V14.01,2013-02-25 14:50:00,
2013-02-25 08:55:00,14.3,13.1,30.17,SW,226,0.0,0.0,95,0.00,,,0.00,VWS V14.01,2013-02-25 14:55:00,
2013-02-25 09:00:00,14.3,12.9,30.16,SW,226,0.0,0.0,94,0.00,,,0.00,VWS V14.01,2013-02-25 15:00:00,
2013-02-25 09:05:00,14.3,12.9,30.16,SW,226,0.0,0.0,94,0.00,,,0.00,VWS V14.01,2013-02-25 15:05:00,
2013-02-25 09:10:00,14.1,12.7,30.16,ENE,57,0.0,0.0,94,0.00,,,0.00,VWS V14.01,2013-02-25 15:10:00,
2013-02-25 09:15:00,14.0,12.6,30.16,East,83,0.0,0.0,94,0.00,,,0.00,VWS V14.01,2013-02-25 15:15:00,
2013-02-25 09:20:00,13.9,12.5,30.16,East,92,0.0,0.0,94,0.00,,,0.00,VWS V14.01,2013-02-25 15:20:00,
2013-02-25 09:25:00,13.9,12.5,30.15,North,360,2.0,3.1,94,0.00,,,0.00,VWS V14.01,2013-02-25 15:25:00,
2013-02-25 09:30:00,13.8,12.4,30.15,East,92,3.0,3.1,94,0.00,,,0.00,VWS V14.01,2013-02-25 15:30:00,
2013-02-25 09:35:00,14.0,12.6,30.15,East,99,0.0,3.1,94,0.00,,,0.00,VWS V14.01,2013-02-25 15:35:00,
2013-02-25 09:40:00,14.1,12.7,30.16,ESE,103,0.0,0.0,94,0.00,,,0.00,VWS V14.01,2013-02-25 15:40:00,
2013-02-25 09:45:00,14.3,12.9,30.16,ESE,113,0.0,0.0,94,0.00,,,0.00,VWS V14.01,2013-02-25 15:45:00,
2013-02-25 09:50:00,14.4,13.0,30.16,ESE,113,0.0,0.0,94,0.00,,,0.00,VWS V14.01,2013-02-25 15:50:00,
2013-02-25 09:55:00,14.6,13.4,30.16,ESE,115,0.0,0.0,95,0.00,,,0.00,VWS V14.01,2013-02-25 15:55:00,
2013-02-25 10:00:00,14.9,13.7,30.16,SE,126,0.0,0.0,95,0.00,,,0.00,VWS V14.01,2013-02-25 16:00:00,
2013-02-25 10:05:00,15.0,13.8,30.16,SE,128,0.0,0.0,95,0.00,,,0.00,VWS V14.01,2013-02-25 16:05:00,
2013-02-25 10:10:00,15.2,14.0,30.16,SE,128,0.0,0.0,95,0.00,,,0.00,VWS V14.01,2013-02-25 16:10:00,
2013-02-25 10:15:00,15.5,14.3,30.16,SE,128,0.0,0.0,95,0.00,,,0.00,VWS V14.01,2013-02-25 16:15:00,
2013-02-25 10:20:00,16.0,14.8,30.16,SE,128,0.0,0.0,95,0.00,,,0.00,VWS V14.01,2013-02-25 16:20:00,
2013-02-25 10:25:00,16.7,15.8,30.16,SE,128,0.0,0.0,96,0.00,,,0.00,VWS V14.01,2013-02-25 16:25:00,
2013-02-25 10:30:00,17.1,16.1,30.16,SE,128,0.0,0.0,96,0.00,,,0.00,VWS V14.01,2013-02-25 16:30:00,
2013-02-25 10:35:00,17.2,16.0,30.16,SE,128,0.0,0.0,95,0.00,,,0.00,VWS V14.01,2013-02-25 16:35:00,
2013-02-25 10:40:00,17.6,16.6,30.16,SE,128,0.0,0.0,96,0.00,,,0.00,VWS V14.01,2013-02-25 16:40:00,
2013-02-25 10:45:00,17.9,16.9,30.16,SSE,155,4.0,4.2,96,0.00,,,0.00,VWS V14.01,2013-02-25 16:45:00,
2013-02-25 10:50:00,17.9,16.9,30.16,SSE,149,4.0,5.2,96,0.00,,,0.00,VWS V14.01,2013-02-25 16:50:00,
2013-02-25 10:55:00,18.0,17.0,30.16,SSE,150,4.0,6.3,96,0.00,,,0.00,VWS V14.01,2013-02-25 16:55:00,
2013-02-25 11:00:00,18.1,17.1,30.16,SE,143,4.0,5.2,96,0.00,,,0.00,VWS V14.01,2013-02-25 17:00:00,
2013-02-25 11:05:00,18.4,17.2,30.16,SSE,157,3.0,5.2,95,0.00,,,0.00,VWS V14.01,2013-02-25 17:05:00,
2013-02-25 11:10:00,18.8,17.8,30.16,SSE,165,0.0,5.2,96,0.00,,,0.00,VWS V14.01,2013-02-25 17:10:00,
2013-02-25 11:15:00,19.1,18.1,30.16,South,176,5.0,5.2,96,0.00,,,0.00,VWS V14.01,2013-02-25 17:15:00,
2013-02-25 11:20:00,19.4,18.4,30.16,SSE,167,0.0,5.2,96,0.00,,,0.00,VWS V14.01,2013-02-25 17:20:00,
2013-02-25 11:25:00,19.7,18.7,30.16,South,176,1.0,6.3,96,0.00,,,0.00,VWS V14.01,2013-02-25 17:25:00,
2013-02-25 11:30:00,20.0,19.0,30.16,SSW,196,3.0,8.4,96,0.00,,,0.00,VWS V14.01,2013-02-25 17:30:00,
2013-02-25 11:40:00,20.2,19.2,30.16,South,189,2.0,6.3,96,0.00,,,0.00,VWS V14.01,2013-02-25 17:40:00,
2013-02-25 11:45:00,20.5,19.5,30.16,South,176,1.0,4.2,96,0.00,,,0.00,VWS V14.01,2013-02-25 17:45:00,
2013-02-25 11:50:00,20.6,19.6,30.16,South,188,6.0,6.3,96,0.00,,,0.00,VWS V14.01,2013-02-25 17:50:00,
2013-02-25 11:55:00,20.5,19.5,30.16,SSW,206,4.0,6.3,96,0.00,,,0.00,VWS V14.01,2013-02-25 17:55:00,
2013-02-25 12:00:00,20.4,19.4,30.16,SSW,197,3.0,6.3,96,0.00,,,0.00,VWS V14.01,2013-02-25 18:00:00,
2013-02-25 12:05:00,20.5,19.5,30.16,South,188,5.0,6.3,96,0.00,,,0.00,VWS V14.01,2013-02-25 18:05:00,
2013-02-25 12:10:00,20.6,19.6,30.15,South,188,4.0,5.2,96,0.00,,,0.00,VWS V14.01,2013-02-25 18:10:00,
2013-02-25 12:15:00,20.9,19.9,30.15,South,188,0.0,5.2,96,0.00,,,0.00,VWS V14.01,2013-02-25 18:15:00,
2013-02-25 12:20:00,21.2,20.2,30.15,South,188,0.0,0.0,96,0.00,,,0.00,VWS V14.01,2013-02-25 18:20:00,
2013-02-25 12:25:00,21.5,20.5,30.15,South,188,0.0,0.0,96,0.00,,,0.00,VWS V14.01,2013-02-25 18:25:00,
2013-02-25 12:30:00,21.8,20.8,30.15,South,188,0.0,0.0,96,0.00,,,0.00,VWS V14.01,2013-02-25 18:30:00,
2013-02-25 12:35:00,22.1,21.4,30.14,South,188,0.0,0.0,97,0.00,,,0.00,VWS V14.01,2013-02-25 18:35:00,
2013-02-25 12:40:00,22.2,21.2,30.14,South,188,0.0,0.0,96,0.00,,,0.00,VWS V14.01,2013-02-25 18:40:00,
2013-02-25 12:45:00,22.1,21.1,30.14,South,188,0.0,0.0,96,0.00,,,0.00,VWS V14.01,2013-02-25 18:45:00,
2013-02-25 12:50:00,22.2,21.2,30.14,South,188,0.0,0.0,96,0.00,,,0.00,VWS V14.01,2013-02-25 18:50:00,
2013-02-25 12:55:00,22.4,21.4,30.13,South,188,0.0,0.0,96,0.00,,,0.00,VWS V14.01,2013-02-25 18:55:00,
2013-02-25 13:00:00,22.6,21.9,30.13,South,188,0.0,0.0,97,0.00,,,0.00,VWS V14.01,2013-02-25 19:00:00,
2013-02-25 13:05:00,22.6,21.9,30.14,South,188,0.0,0.0,97,0.00,,,0.00,VWS V14.01,2013-02-25 19:05:00,
2013-02-25 13:10:00,22.0,21.0,30.14,WSW,257,0.0,2.1,96,0.00,,,0.00,VWS V14.01,2013-02-25 19:10:00,
2013-02-25 13:15:00,22.0,21.0,30.14,WSW,257,0.0,1.0,96,0.00,,,0.00,VWS V14.01,2013-02-25 19:15:00,
2013-02-25 13:20:00,22.4,21.4,30.14,WSW,257,0.0,0.0,96,0.00,,,0.00,VWS V14.01,2013-02-25 19:20:00,
2013-02-25 13:25:00,22.2,21.2,30.13,WSW,258,0.0,0.0,96,0.00,,,0.00,VWS V14.01,2013-02-25 19:25:00,
2013-02-25 13:30:00,22.7,22.0,30.14,SSE,150,0.0,0.0,97,0.00,,,0.00,VWS V14.01,2013-02-25 19:30:00,
2013-02-25 13:35:00,23.2,22.5,30.13,SSE,150,0.0,0.0,97,0.00,,,0.00,VWS V14.01,2013-02-25 19:35:00,
2013-02-25 13:40:00,23.9,23.2,30.13,SSE,150,0.0,0.0,97,0.00,,,0.00,VWS V14.01,2013-02-25 19:40:00,
2013-02-25 13:45:00,24.6,23.9,30.13,SSE,150,0.0,0.0,97,0.00,,,0.00,VWS V14.01,2013-02-25 19:45:00,
2013-02-25 13:50:00,25.2,24.7,30.13,SSE,150,0.0,0.0,98,0.00,,,0.00,VWS V14.01,2013-02-25 19:50:00,
2013-02-25 13:55:00,24.5,23.8,30.13,SSE,150,0.0,0.0,97,0.00,,,0.00,VWS V14.01,2013-02-25 19:55:00,
2013-02-25 14:00:00,24.3,23.3,30.12,West,266,0.0,0.0,96,0.00,,,0.00,VWS V14.01,2013-02-25 20:00:00,
2013-02-25 14:05:00,24.3,23.3,30.12,East,92,0.0,0.0,96,0.00,,,0.00,VWS V14.01,2013-02-25 20:05:00,
2013-02-25 14:10:00,24.6,23.9,30.12,East,92,0.0,0.0,97,0.00,,,0.00,VWS V14.01,2013-02-25 20:10:00,
2013-02-25 14:15:00,25.1,24.4,30.12,East,92,0.0,0.0,97,0.00,,,0.00,VWS V14.01,2013-02-25 20:15:00,
2013-02-25 14:20:00,25.1,24.4,30.12,East,92,0.0,0.0,97,0.00,,,0.00,VWS V14.01,2013-02-25 20:20:00,
2013-02-25 14:25:00,24.6,23.6,30.11,East,92,0.0,0.0,96,0.00,,,0.00,VWS V14.01,2013-02-25 20:25:00,
2013-02-25 14:30:00,24.4,23.4,30.11,NNW,344,0.0,0.0,96,0.00,,,0.00,VWS V14.01,2013-02-25 20:30:00,
2013-02-25 14:35:00,24.4,23.4,30.12,NNW,344,0.0,0.0,96,0.00,,,0.00,VWS V14.01,2013-02-25 20:35:00,
2013-02-25 14:40:00,24.4,23.4,30.11,NNW,344,0.0,0.0,96,0.00,,,0.00,VWS V14.01,2013-02-25 20:40:00,
2013-02-25 14:45:00,24.5,23.5,30.12,NNW,344,0.0,0.0,96,0.00,,,0.00,VWS V14.01,2013-02-25 20:45:00,
2013-02-25 14:50:00,24.6,23.9,30.12,NNW,344,0.0,0.0,97,0.00,,,0.00,VWS V14.01,2013-02-25 20:50:00,
2013-02-25 14:55:00,24.4,23.4,30.13,NNW,344,0.0,0.0,96,0.00,,,0.00,VWS V14.01,2013-02-25 20:55:00,
2013-02-25 15:05:00,23.8,22.8,30.12,SE,142,0.0,0.0,96,0.00,,,0.00,VWS V14.01,2013-02-25 21:05:00,
2013-02-25 15:10:00,24.0,23.0,30.12,SE,142,0.0,0.0,96,0.00,,,0.00,VWS V14.01,2013-02-25 21:10:00,
2013-02-25 15:15:00,23.9,22.9,30.13,SE,142,0.0,0.0,96,0.00,,,0.00,VWS V14.01,2013-02-25 21:15:00,
2013-02-25 15:20:00,23.6,22.6,30.12,SE,142,0.0,0.0,96,0.00,,,0.00,VWS V14.01,2013-02-25 21:20:00,
2013-02-25 15:25:00,23.5,22.5,30.12,SE,142,0.0,3.1,96,0.00,,,0.00,VWS V14.01,2013-02-25 21:25:00,
2013-02-25 15:30:00,23.5,22.5,30.12,SE,143,0.0,0.0,96,0.00,,,0.00,VWS V14.01,2013-02-25 21:30:00,
2013-02-25 15:35:00,23.5,22.5,30.12,SE,143,0.0,0.0,96,0.00,,,0.00,VWS V14.01,2013-02-25 21:35:00,
2013-02-25 15:40:00,23.5,22.5,30.12,SE,143,0.0,0.0,96,0.00,,,0.00,VWS V14.01,2013-02-25 21:40:00,
2013-02-25 15:45:00,23.7,22.7,30.12,SE,143,0.0,0.0,96,0.00,,,0.00,VWS V14.01,2013-02-25 21:45:00,
2013-02-25 15:50:00,23.9,22.9,30.12,SE,143,0.0,0.0,96,0.00,,,0.00,VWS V14.01,2013-02-25 21:50:00,
2013-02-25 15:55:00,24.2,23.2,30.12,SE,143,0.0,0.0,96,0.00,,,0.00,VWS V14.01,2013-02-25 21:55:00,
2013-02-25 16:00:00,24.6,23.6,30.12,SE,143,0.0,0.0,96,0.00,,,0.00,VWS V14.01,2013-02-25 22:00:00,
2013-02-25 16:05:00,24.6,23.6,30.12,SE,143,0.0,0.0,96,0.00,,,0.00,VWS V14.01,2013-02-25 22:05:00,
2013-02-25 16:10:00,24.6,23.6,30.11,SE,143,0.0,0.0,96,0.00,,,0.00,VWS V14.01,2013-02-25 22:10:00,
2013-02-25 16:15:00,24.6,23.6,30.11,NNW,346,0.0,0.0,96,0.00,,,0.00,VWS V14.01,2013-02-25 22:15:00,
2013-02-25 16:20:00,24.6,23.4,30.11,NNW,346,0.0,0.0,95,0.00,,,0.00,VWS V14.01,2013-02-25 22:20:00,
2013-02-25 16:25:00,24.6,23.4,30.11,NNW,346,0.0,0.0,95,0.00,,,0.00,VWS V14.01,2013-02-25 22:25:00,
2013-02-25 16:30:00,24.4,23.2,30.11,NNW,346,0.0,0.0,95,0.00,,,0.00,VWS V14.01,2013-02-25 22:30:00,
2013-02-25 16:35:00,24.3,23.1,30.11,NNW,346,0.0,0.0,95,0.00,,,0.00,VWS V14.01,2013-02-25 22:35:00,
2013-02-25 16:40:00,24.3,23.1,30.12,NNW,346,0.0,0.0,95,0.00,,,0.00,VWS V14.01,2013-02-25 22:40:00,
2013-02-25 16:45:00,24.1,22.9,30.12,NNW,346,0.0,0.0,95,0.00,,,0.00,VWS V14.01,2013-02-25 22:45:00,
2013-02-25 16:50:00,24.1,22.9,30.12,NNW,346,0.0,0.0,95,0.00,,,0.00,VWS V14.01,2013-02-25 22:50:00,
2013-02-25 16:55:00,24.0,22.8,30.12,NNW,346,0.0,0.0,95,0.00,,,0.00,VWS V14.01,2013-02-25 22:55:00,
2013-02-25 17:00:00,24.0,22.8,30.12,NNW,346,0.0,0.0,95,0.00,,,0.00,VWS V14.01,2013-02-25 23:00:00,
2013-02-25 17:10:00,24.0,22.8,30.12,NNW,346,0.0,0.0,95,0.00,,OVC010,0.00,VWS V14.01,2013-02-25 23:10:00,
2013-02-25 17:15:00,24.0,22.8,30.11,NNW,346,0.0,0.0,95,0.00,,OVC010,0.00,VWS V14.01,2013-02-25 23:15:00,
2013-02-25 17:20:00,24.0,22.8,30.11,NNW,346,0.0,0.0,95,0.00,,OVC010,0.00,VWS V14.01,2013-02-25 23:20:00,
2013-02-25 17:25:00,24.0,22.8,30.12,NNW,346,0.0,0.0,95,0.00,,OVC010,0.00,VWS V14.01,2013-02-25 23:25:00,
2013-02-25 17:35:00,24.0,22.8,30.12,SE,131,0.0,0.0,95,0.00,,OVC010,0.00,VWS V14.01,2013-02-25 23:35:00,
2013-02-25 17:40:00,24.0,22.8,30.12,SE,131,0.0,0.0,95,0.00,,OVC010,0.00,VWS V14.01,2013-02-25 23:40:00,
2013-02-25 17:45:00,24.0,22.8,30.12,SE,131,0.0,0.0,95,0.00,,OVC010,0.00,VWS V14.01,2013-02-25 23:45:00,
2013-02-25 17:50:00,24.0,22.8,30.12,ESE,109,0.0,0.0,95,0.00,,OVC010,0.00,VWS V14.01,2013-02-25 23:50:00,
2013-02-25 17:55:00,24.2,23.2,30.12,NE,42,3.0,3.1,96,0.00,,OVC010,0.00,VWS V14.01,2013-02-25 23:55:00,
2013-02-25 18:00:00,24.1,23.1,30.12,NE,42,0.0,3.1,96,0.00,,OVC010,0.00,VWS V14.01,2013-02-26 00:00:00,
2013-02-25 18:05:00,24.1,23.1,30.12,NE,42,0.0,0.0,96,0.00,,OVC010,0.00,VWS V14.01,2013-02-26 00:05:00,
2013-02-25 18:10:00,24.0,22.8,30.12,ENE,71,0.0,4.2,95,0.00,,OVC010,0.00,VWS V14.01,2013-02-26 00:10:00,
2013-02-25 18:15:00,24.0,22.8,30.12,ENE,74,3.0,3.1,95,0.00,,OVC010,0.00,VWS V14.01,2013-02-26 00:15:00,
2013-02-25 18:20:00,23.9,22.9,30.11,ENE,75,0.0,4.2,96,0.00,,OVC010,0.00,VWS V14.01,2013-02-26 00:20:00,
2013-02-25 18:25:00,23.8,22.8,30.11,ENE,75,0.0,0.0,96,0.00,,OVC010,0.00,VWS V14.01,2013-02-26 00:25:00,
2013-02-25 18:30:00,23.7,22.7,30.11,ENE,68,0.0,0.0,96,0.00,,OVC010,0.00,VWS V14.01,2013-02-26 00:30:00,
2013-02-25 18:35:00,23.7,22.7,30.12,ENE,72,0.0,3.1,96,0.00,,OVC010,0.00,VWS V14.01,2013-02-26 00:35:00,
2013-02-25 18:40:00,23.6,22.6,30.12,ENE,57,2.0,4.2,96,0.00,,OVC010,0.00,VWS V14.01,2013-02-26 00:40:00,
2013-02-25 18:45:00,23.6,22.6,30.13,ENE,57,0.0,3.1,96,0.00,,OVC010,0.00,VWS V14.01,2013-02-26 00:45:00,
2013-02-25 18:50:00,23.5,22.5,30.12,ENE,64,0.0,0.0,96,0.00,,OVC010,0.00,VWS V14.01,2013-02-26 00:50:00,
2013-02-25 18:55:00,23.4,22.4,30.13,East,94,3.0,5.2,96,0.00,,OVC010,0.00,VWS V14.01,2013-02-26 00:55:00,
2013-02-25 19:00:00,23.2,22.2,30.12,East,87,0.0,7.3,96,0.00,,OVC010,0.00,VWS V14.01,2013-02-26 01:00:00,
2013-02-25 19:05:00,23.2,22.2,30.12,NE,55,0.0,4.2,96,0.00,,OVC010,0.00,VWS V14.01,2013-02-26 01:05:00,
2013-02-25 19:10:00,23.1,22.1,30.12,NE,55,0.0,4.2,96,0.00,,OVC010,0.00,VWS V14.01,2013-02-26 01:10:00,
2013-02-25 19:15:00,23.1,22.1,30.12,ESE,102,0.0,5.2,96,0.00,,OVC010,0.00,VWS V14.01,2013-02-26 01:15:00,
2013-02-25 19:20:00,23.1,22.1,30.12,East,97,5.0,6.3,96,0.00,,OVC010,0.00,VWS V14.01,2013-02-26 01:20:00,
2013-02-25 19:25:00,23.1,22.1,30.12,East,97,5.0,5.2,96,0.00,,OVC010,0.00,VWS V14.01,2013-02-26 01:25:00,
2013-02-25 19:30:00,23.1,22.1,30.12,NE,46,0.0,5.2,96,0.00,,OVC010,0.00,VWS V14.01,2013-02-26 01:30:00,
2013-02-25 19:35:00,23.1,22.1,30.12,ENE,69,3.0,4.2,96,0.00,,OVC010,0.00,VWS V14.01,2013-02-26 01:35:00,
2013-02-25 19:40:00,23.0,22.0,30.11,NE,46,5.0,7.3,96,0.00,,OVC010,0.00,VWS V14.01,2013-02-26 01:40:00,
2013-02-25 19:45:00,23.0,22.0,30.12,NE,42,0.0,7.3,96,0.00,,OVC010,0.00,VWS V14.01,2013-02-26 01:45:00,
2013-02-25 19:50:00,23.0,22.3,30.12,NE,42,0.0,0.0,97,0.00,,OVC010,0.00,VWS V14.01,2013-02-26 01:50:00,
2013-02-25 19:55:00,23.0,22.3,30.12,NE,42,0.0,0.0,97,0.00,,OVC010,0.00,VWS V14.01,2013-02-26 01:55:00,
2013-02-25 20:00:00,23.0,22.3,30.12,NE,42,0.0,0.0,97,0.00,,OVC010,0.00,VWS V14.01,2013-02-26 02:00:00,
2013-02-25 20:05:00,22.9,22.2,30.12,ENE,74,0.0,0.0,97,0.00,,OVC010,0.00,VWS V14.01,2013-02-26 02:05:00,
2013-02-25 20:10:00,22.8,21.8,30.12,ENE,74,4.0,4.2,96,0.00,,OVC010,0.00,VWS V14.01,2013-02-26 02:10:00,
2013-02-25 20:15:00,22.7,21.7,30.12,East,100,0.0,7.3,96,0.00,,OVC010,0.00,VWS V14.01,2013-02-26 02:15:00,
2013-02-25 20:20:00,22.6,21.9,30.12,East,100,0.0,0.0,97,0.00,,OVC010,0.00,VWS V14.01,2013-02-26 02:20:00,
2013-02-25 20:25:00,22.6,21.9,30.12,East,101,2.0,3.1,97,0.00,,OVC008,0.00,VWS V14.01,2013-02-26 02:25:00,
2013-02-25 20:30:00,22.5,21.8,30.11,East,85,0.0,7.3,97,0.00,,OVC008,0.00,VWS V14.01,2013-02-26 02:30:00,
2013-02-25 20:40:00,22.4,21.7,30.11,ENE,57,0.0,2.1,97,0.00,,OVC008,0.00,VWS V14.01,2013-02-26 02:40:00,
2013-02-25 20:45:00,22.4,21.7,30.11,ENE,57,0.0,0.0,97,0.00,,,0.00,VWS V14.01,2013-02-26 02:45:00,
2013-02-25 20:50:00,22.4,21.7,30.11,ENE,57,0.0,0.0,97,0.00,,,0.00,VWS V14.01,2013-02-26 02:50:00,
2013-02-25 20:55:00,22.4,21.7,30.11,ENE,57,0.0,0.0,97,0.00,,,0.00,VWS V14.01,2013-02-26 02:55:00,
2013-02-25 21:05:00,22.4,21.7,30.11,East,96,0.0,0.0,97,0.00,,,0.00,VWS V14.01,2013-02-26 03:05:00,
2013-02-25 21:10:00,22.3,21.6,30.10,East,96,0.0,0.0,97,0.00,,,0.00,VWS V14.01,2013-02-26 03:10:00,
2013-02-25 21:15:00,22.3,21.6,30.10,East,100,0.0,5.2,97,0.00,,,0.00,VWS V14.01,2013-02-26 03:15:00,
2013-02-25 21:20:00,22.3,21.6,30.10,SE,133,0.0,6.3,97,0.00,,,0.00,VWS V14.01,2013-02-26 03:20:00,
2013-02-25 21:25:00,22.3,21.6,30.10,SE,132,0.0,0.0,97,0.00,,,0.00,VWS V14.01,2013-02-26 03:25:00,
2013-02-25 21:30:00,22.2,21.5,30.10,ENE,75,4.0,5.2,97,0.00,,,0.00,VWS V14.01,2013-02-26 03:30:00,
2013-02-25 21:35:00,22.0,21.3,30.10,ENE,67,0.0,8.4,97,0.00,,,0.00,VWS V14.01,2013-02-26 03:35:00,
2013-02-25 21:40:00,22.0,21.3,30.09,East,82,3.0,7.3,97,0.00,,,0.00,VWS V14.01,2013-02-26 03:40:00,
2013-02-25 21:45:00,21.9,21.2,30.09,East,97,2.0,5.2,97,0.00,,,0.00,VWS V14.01,2013-02-26 03:45:00,
2013-02-25 21:50:00,21.9,21.2,30.08,East,97,0.0,3.1,97,0.00,,,0.00,VWS V14.01,2013-02-26 03:50:00,
2013-02-25 21:55:00,21.8,21.1,30.08,East,92,0.0,5.2,97,0.00,,,0.00,VWS V14.01,2013-02-26 03:55:00,
2013-02-25 22:00:00,21.9,21.2,30.08,East,98,5.0,7.3,97,0.00,,,0.00,VWS V14.01,2013-02-26 04:00:00,
2013-02-25 22:05:00,21.9,21.2,30.09,ESE,118,5.0,7.3,97,0.00,,,0.00,VWS V14.01,2013-02-26 04:05:00,
2013-02-25 22:10:00,21.8,21.1,30.08,ENE,65,0.0,6.3,97,0.00,,,0.00,VWS V14.01,2013-02-26 04:10:00,
2013-02-25 22:15:00,21.8,21.1,30.08,ENE,65,0.0,0.0,97,0.00,,,0.00,VWS V14.01,2013-02-26 04:15:00,
2013-02-25 22:20:00,21.7,21.0,30.07,NE,48,3.0,5.2,97,0.00,,,0.00,VWS V14.01,2013-02-26 04:20:00,
2013-02-25 22:25:00,21.6,20.9,30.07,ENE,65,3.0,5.2,97,0.00,,,0.00,VWS V14.01,2013-02-26 04:25:00,
2013-02-25 22:30:00,21.6,20.9,30.07,East,91,3.0,6.3,97,0.00,,,0.00,VWS V14.01,2013-02-26 04:30:00,
2013-02-25 22:35:00,21.6,20.9,30.08,East,84,3.0,7.3,97,0.00,,,0.00,VWS V14.01,2013-02-26 04:35:00,
2013-02-25 22:40:00,21.5,20.8,30.08,NE,54,5.0,6.3,97,0.00,,,0.00,VWS V14.01,2013-02-26 04:40:00,
2013-02-25 22:45:00,21.3,20.6,30.08,ENE,69,0.0,5.2,97,0.00,,,0.00,VWS V14.01,2013-02-26 04:45:00,
2013-02-25 22:50:00,21.2,20.5,30.09,East,90,6.0,7.3,97,0.00,,,0.00,VWS V14.01,2013-02-26 04:50:00,
2013-02-25 22:55:00,21.1,20.4,30.09,ESE,115,4.0,7.3,97,0.00,,,0.00,VWS V14.01,2013-02-26 04:55:00,
2013-02-25 23:00:00,21.0,20.3,30.09,ESE,123,2.0,4.2,97,0.00,,,0.00,VWS V14.01,2013-02-26 05:00:00,
2013-02-25 23:05:00,21.1,20.4,30.09,ESE,123,0.0,2.1,97,0.00,,,0.00,VWS V14.01,2013-02-26 05:05:00,
2013-02-25 23:10:00,21.1,20.4,30.09,SE,127,0.0,3.1,97,0.00,,,0.00,VWS V14.01,2013-02-26 05:10:00,
2013-02-25 23:15:00,21.1,20.4,30.09,SE,127,0.0,0.0,97,0.00,,,0.00,VWS V14.01,2013-02-26 05:15:00,
2013-02-25 23:20:00,21.1,20.4,30.09,SE,127,0.0,0.0,97,0.00,,,0.00,VWS V14.01,2013-02-26 05:20:00,
2013-02-25 23:25:00,21.1,20.4,30.09,SE,127,0.0,0.0,97,0.00,,,0.00,VWS V14.01,2013-02-26 05:25:00,
2013-02-25 23:30:00,21.1,20.4,30.08,SE,127,0.0,0.0,97,0.00,,,0.00,VWS V14.01,2013-02-26 05:30:00,
2013-02-25 23:35:00,21.1,20.4,30.08,SE,127,0.0,0.0,97,0.00,,,0.00,VWS V14.01,2013-02-26 05:35:00,
2013-02-25 23:40:00,21.1,20.4,30.08,SE,127,0.0,0.0,97,0.00,,,0.00,VWS V14.01,2013-02-26 05:40:00,
2013-02-25 23:45:00,21.1,20.4,30.08,SE,144,5.0,5.2,97,0.00,,,0.00,VWS V14.01,2013-02-26 05:45:00,
2013-02-25 23:50:00,21.1,20.4,30.08,SE,140,5.0,7.3,97,0.00,,,0.00,VWS V14.01,2013-02-26 05:50:00,
2013-02-25 23:55:00,21.1,20.4,30.08,SE,134,3.0,5.2,97,0.00,,,0.00,VWS V14.01,2013-02-26 05:55:00,